Погода в Параку

Бенин     9°21′36″N   2°37′16″E
темп.,
°C
ветер,
м/с
пор.,
м/с
влажн.,
%
обл.,
%
осадки,
мм/ч
давл.,
гПа
погр.,
м
5 августа, чт
чт501:00+22ю41097100 5.4 1015449
04:00+22ю3896100 0.1 1015495
07:00+21ююз3898100 1.1 1016497
10:00+22ю3698100 4.8 1018331
13:00+23ююз479492 7.7 1017515
16:00+25юз568079 1.3 1014880
19:00+22ююз379472 2.4 1015300
22:00+21ю279763 0.5 1018274
6 августа, пт
пт601:00+21ююз2799100 0.5 1017307
04:00+20ю279998 0.0 1015281
07:00+20ююз279979 0.0 1017285
10:00+23ююз358996 0.0 1018561
13:00+25зюз358298 0.7 1016690
16:00+25ююз458345 1.5 1014681
19:00+23юз369225 4.1 1015233
22:00+22юз25976 1.0 1016132
7 августа, сб
сб701:00+21юз259820 1.0 1015147
04:00+20зюз23979 0.0 101564
07:00+20зюз129899 0.0 101674
10:00+25зюз36795 0.0 1017640
13:00+29зюз456383 0.0 10141449
16:00+26юз357748 0.1 1012392
19:00+24юз228310 0.4 101341
22:00+22ююз379038 0.0 1015172
8 августа, вс
вс801:00+22юз259394 0.0 1015133
04:00+21ююз269498 0.0 1014169
07:00+22ю3893100 0.0 1015314
10:00+26юз4677100 0.0 1017730
13:00+28юз457099 0.5 10151198
16:00+29зюз446642 1.3 10121272
19:00+24юз348795 3.0 101377
22:00+22ююз39948 0.6 1015274
9 августа, пн
пн901:00+22ю41197100 0.6 1015462
04:00+21ююз4894100 0.3 1014573
07:00+21ююз3897100 3.1 1016574
10:00+22ю3695100 0.3 1017431
13:00+24юз3588100 0.4 1016579
16:00+25зюз348096 0.5 1014707
19:00+23юз2292100 1.3 101439
22:00+22ю2697100 1.4 1016160